Weather Roundup
Issued by NWS Chicago, IL

Home | Current Version | Previous Version | Text Only | Print | Product List | Glossary Off
Versions: 1 2 3 4 5 6 7 8 9 10 11 12 13 14 15 16 17 18 19 20 21 22 23 24 25 26 27 28 29 30 31 32 33 34 35 36 37 38 39 40 41 42 43 44 45 46 47 48 49 50

065
NZUS59 KLOT 200108
HRRLOT

CHICAGO AREA WEATHER ROUNDUP
NATIONAL WEATHER SERVICE CHICAGO/ROMEOVILLE IL
800 PM CDT SAT AUG 19 2017

NOTE: "FAIR" INDICATES FEW OR NO CLOUDS BELOW 12,000 FEET WITH NO
SIGNIFICANT WEATHER AND/OR OBSTRUCTIONS TO VISIBILITY.

* THESE STATIONS ARE NOT UNDER NWS QUALITY CONTROL. THEY ALSO MAY NOT
  REPORT WEATHER SUCH AS PRECIPITATION OR FOG.

ILZ005-006-012>014-019>023-200200-
NORTHEAST ILLINOIS

CITY           SKY/WX    TMP DP  RH WIND       PRES   REMARKS
OHARE          PTCLDY    76  55  48 E8        29.95S
MIDWAY         PTCLDY    77  54  44 E7        29.95S
AURORA         CLEAR     71  65  81 CALM      29.96S
LANSING*       CLEAR     74  50  43 E5        29.96S
JOLIET*        CLEAR     70  64  81 CALM      29.96S
WAUKEGAN       CLEAR     71  61  70 S5        29.95S
DUPAGE AIRPORT CLEAR     75  60  59 CALM      29.95S
WHEELING       CLEAR     74  58  57 SE5       29.97R
MORRIS*        CLEAR     75  57  53 CALM      29.95S
LEWIS AIRPORT* CLEAR     73  57  58 W3        29.96S
NORTHERLY ISL    N/A     73  59  61 E7          N/A
$$

WIZ051-052-058>065-066-070>072-200200-
SOUTHEAST WISCONSIN

CITY           SKY/WX    TMP DP  RH WIND       PRES   REMARKS
MILWAUKEE      CLEAR     77  61  57 SW6       29.94S
KENOSHA*       CLEAR     71  61  70 S5        29.96R
RACINE*        CLEAR     71  61  70 S5        29.97R
WAUKESHA       CLEAR     72  59  64 SW5       29.96S
WEST BEND      CLEAR     70  61  73 CALM      29.95S
$$

INZ001>003-010>013-019-020-200200-
NORTHWEST INDIANA

CITY           SKY/WX    TMP DP  RH WIND       PRES   REMARKS
GARY*          CLEAR     70  55  60 VRB3      29.97R
MICHIGAN CITY* NOT AVBL
RENSSELAER*    NOT AVBL
VALPARAISO     CLEAR     70  60  70 NE3       29.98R
$$

LMZ740>746-200200-
SOUTHERN LAKE MICHIGAN

STATION/POSITION TIME  SKY/WX   TEMP WIND        PRES    VSBY
                                AIR  DIR/SP/G
                 (UTC)          (F)  (DEG/KT/KT) (MB)    (MI)
HARRISON CRIB    0010            75  120/  8/  8   N/A
BURNHAM HARBOR   NOT AVBL
CALUMET HARBOR   0042            75   80/  7/  8 1014.0R
BURNS HARBOR     0040            75   80/  6/  6 1014.9S
MICHIGAN CITY    0010            73   60/  6/  6   N/A
$$

ABBREVIATIONS USED IN REMARKS
   TC - TEMPERATURE IN CELSIUS
  WCI - WIND CHILL INDEX
   HX - HEAT INDEX
  VSB - VISIBILITY
$$




USA.gov is the U.S. government's official web portal to all federal, state and local government web resources and services.